| time (UTC) | temp F | wind direction | speed MPH | gust MPH | rain 1hr in | rain 24hr in | rain mn in | humidity % | barometer mb |
| 20260507070352 | 41 | 0 | 0.0 | 0.0 | 0.00 | 0.00 | 0.00 | 95 | 1014.8 |
| 20260507065851 | 42 | 0 | 0.0 | 0.0 | 0.00 | 0.00 | 0.00 | 95 | 1014.8 |
| 20260507065354 | 42 | 0 | 0.0 | 0.0 | 0.00 | 0.00 | 0.00 | 95 | 1014.8 |
| 20260507064851 | 42 | 0 | 0.0 | 0.0 | 0.00 | 0.00 | 0.00 | 95 | 1014.9 |
| 20260507064351 | 42 | 242 | 1.0 | 1.0 | 0.00 | 0.00 | 0.00 | 95 | 1015.0 |
| 20260507063853 | 42 | 232 | 1.0 | 1.0 | 0.00 | 0.00 | 0.00 | 95 | 1015.0 |
| 20260507063353 | 42 | 247 | 1.0 | 1.0 | 0.00 | 0.00 | 0.00 | 95 | 1014.9 |
| 20260507062853 | 42 | 251 | 0.0 | 1.0 | 0.00 | 0.00 | 0.00 | 95 | 1014.9 |
| 20260507062352 | 42 | 0 | 0.0 | 0.0 | 0.00 | 0.00 | 0.00 | 94 | 1014.9 |
| 20260507061853 | 42 | 0 | 0.0 | 0.0 | 0.00 | 0.00 | 0.00 | 94 | 1014.9 |
| 20260507061351 | 42 | 0 | 0.0 | 0.0 | 0.00 | 0.00 | 0.00 | 94 | 1014.9 |
| 20260507060850 | 42 | 235 | 1.0 | 1.0 | 0.00 | 0.00 | 0.00 | 94 | 1014.9 |
| 20260507060351 | 42 | 0 | 0.0 | 0.0 | 0.00 | 0.00 | 0.00 | 94 | 1014.9 |
| 20260507055849 | 43 | 0 | 0.0 | 0.0 | 0.00 | 0.00 | 0.00 | 94 | 1014.9 |
| 20260507055352 | 43 | 237 | 1.0 | 1.0 | 0.00 | 0.00 | 0.00 | 94 | 1014.9 |
| 20260507054850 | 43 | 232 | 1.0 | 1.0 | 0.00 | 0.00 | 0.00 | 93 | 1015.0 |
| 20260507054350 | 43 | 237 | 1.0 | 1.0 | 0.00 | 0.00 | 0.00 | 93 | 1015.0 |
| 20260507053851 | 43 | 234 | 1.0 | 1.0 | 0.00 | 0.00 | 0.00 | 93 | 1015.1 |
| 20260507053353 | 43 | 236 | 1.0 | 1.0 | 0.00 | 0.00 | 0.00 | 93 | 1015.0 |
| 20260507052849 | 42 | 257 | 1.0 | 1.0 | 0.00 | 0.00 | 0.00 | 93 | 1015.1 |
| 20260507052357 | 42 | 240 | 1.0 | 1.0 | 0.00 | 0.00 | 0.00 | 93 | 1015.1 |
| 20260507051849 | 42 | 0 | 0.0 | 0.0 | 0.00 | 0.00 | 0.00 | 93 | 1015.0 |
| 20260507051350 | 43 | 0 | 0.0 | 0.0 | 0.00 | 0.00 | 0.00 | 93 | 1015.0 |
| 20260507050850 | 43 | 0 | 0.0 | 0.0 | 0.00 | 0.00 | 0.00 | 93 | 1015.1 |
| 20260507050351 | 43 | 0 | 0.0 | 0.0 | 0.00 | 0.00 | 0.00 | 92 | 1015.2 |
| 20260507045850 | 43 | 0 | 0.0 | 0.0 | 0.00 | 0.00 | 0.00 | 92 | 1015.3 |
| 20260507045350 | 44 | 0 | 0.0 | 0.0 | 0.00 | 0.00 | 0.00 | 91 | 1015.3 |
| 20260507044849 | 44 | 0 | 0.0 | 0.0 | 0.00 | 0.00 | 0.00 | 91 | 1015.3 |
| 20260507044349 | 44 | 234 | 1.0 | 1.0 | 0.00 | 0.00 | 0.00 | 91 | 1015.5 |
| 20260507043849 | 44 | 232 | 1.0 | 2.0 | 0.00 | 0.00 | 0.00 | 91 | 1015.4 |
| 20260507043350 | 44 | 216 | 2.0 | 2.0 | 0.00 | 0.00 | 0.00 | 91 | 1015.5 |
| 20260507042849 | 44 | 237 | 1.0 | 2.0 | 0.00 | 0.00 | 0.00 | 90 | 1015.4 |
| 20260507042349 | 45 | 241 | 1.0 | 1.0 | 0.00 | 0.00 | 0.00 | 90 | 1015.4 |
| 20260507041851 | 45 | 231 | 1.0 | 2.0 | 0.00 | 0.00 | 0.00 | 90 | 1015.3 |
| 20260507041351 | 45 | 224 | 2.0 | 2.0 | 0.00 | 0.00 | 0.00 | 90 | 1015.4 |
| 20260507040850 | 45 | 234 | 2.0 | 2.0 | 0.00 | 0.00 | 0.00 | 89 | 1015.3 |
| 20260507040349 | 45 | 226 | 1.0 | 1.0 | 0.00 | 0.00 | 0.00 | 89 | 1015.2 |
| 20260507035852 | 45 | 0 | 0.0 | 0.0 | 0.00 | 0.00 | 0.39 | 89 | 1015.2 |
| 20260507035352 | 45 | 217 | 1.0 | 1.0 | 0.00 | 0.00 | 0.39 | 88 | 1015.1 |
| 20260507034856 | 45 | 215 | 0.0 | 1.0 | 0.00 | 0.00 | 0.39 | 88 | 1015.1 |
| 20260507034350 | 46 | 0 | 0.0 | 0.0 | 0.00 | 0.00 | 0.39 | 87 | 1015.2 |
| 20260507033849 | 46 | 232 | 0.0 | 1.0 | 0.00 | 0.00 | 0.39 | 87 | 1015.3 |
| 20260507033351 | 46 | 0 | 0.0 | 0.0 | 0.00 | 0.00 | 0.39 | 86 | 1015.3 |
| 20260507032850 | 47 | 239 | 1.0 | 1.0 | 0.00 | 0.00 | 0.39 | 86 | 1015.4 |
| 20260507032349 | 47 | 244 | 1.0 | 1.0 | 0.00 | 0.00 | 0.39 | 86 | 1015.4 |
| 20260507031850 | 47 | 0 | 0.0 | 0.0 | 0.00 | 0.00 | 0.39 | 85 | 1015.3 |
| 20260507031351 | 47 | 0 | 0.0 | 0.0 | 0.00 | 0.00 | 0.39 | 85 | 1015.3 |
| 20260507030851 | 48 | 244 | 0.0 | 1.0 | 0.00 | 0.00 | 0.39 | 84 | 1015.3 |
| 20260507030352 | 48 | 0 | 0.0 | 0.0 | 0.00 | 0.00 | 0.39 | 83 | 1015.3 |
| 20260507025852 | 49 | 0 | 0.0 | 0.0 | 0.00 | 0.00 | 0.39 | 83 | 1015.3 |
| 20260507025351 | 49 | 0 | 0.0 | 0.0 | 0.00 | 0.00 | 0.39 | 82 | 1015.4 |
| 20260507024851 | 50 | 278 | 1.0 | 1.0 | 0.00 | 0.00 | 0.39 | 82 | 1015.5 |
| 20260507024350 | 50 | 278 | 1.0 | 1.0 | 0.00 | 0.00 | 0.39 | 81 | 1015.4 |
| 20260507023852 | 51 | 308 | 1.0 | 2.0 | 0.00 | 0.00 | 0.39 | 80 | 1015.3 |
| 20260507023351 | 51 | 265 | 1.0 | 1.0 | 0.00 | 0.00 | 0.39 | 78 | 1015.2 |
| 20260507022854 | 51 | 323 | 0.0 | 0.0 | 0.00 | 0.00 | 0.39 | 77 | 1015.1 |
| 20260507022351 | 52 | 0 | 0.0 | 0.0 | 0.00 | 0.00 | 0.39 | 76 | 1015.0 |
| 20260507021850 | 52 | 308 | 0.0 | 1.0 | 0.00 | 0.00 | 0.39 | 76 | 1015.0 |
| 20260507021351 | 52 | 315 | 0.0 | 2.0 | 0.00 | 0.00 | 0.39 | 74 | 1015.0 |
| 20260507020853 | 53 | 0 | 0.0 | 0.0 | 0.00 | 0.00 | 0.39 | 72 | 1015.0 |
| 20260507020351 | 53 | 0 | 0.0 | 0.0 | 0.00 | 0.00 | 0.39 | 71 | 1014.8 |
| 20260507015851 | 53 | 340 | 0.0 | 1.0 | 0.00 | 0.00 | 0.39 | 70 | 1014.8 |
| 20260507015351 | 53 | 342 | 0.0 | 2.0 | 0.00 | 0.00 | 0.39 | 70 | 1014.8 |
| 20260507014854 | 53 | 0 | 0.0 | 0.0 | 0.00 | 0.00 | 0.39 | 71 | 1014.8 |
| 20260507014354 | 53 | 314 | 0.0 | 1.0 | 0.00 | 0.00 | 0.39 | 70 | 1014.8 |
| 20260507013852 | 53 | 327 | 2.0 | 2.0 | 0.00 | 0.00 | 0.39 | 69 | 1014.7 |
| 20260507013353 | 53 | 356 | 0.0 | 1.0 | 0.00 | 0.00 | 0.39 | 69 | 1014.4 |
| 20260507012854 | 54 | 315 | 1.0 | 2.0 | 0.00 | 0.00 | 0.39 | 70 | 1014.5 |
| 20260507012352 | 54 | 0 | 0.0 | 0.0 | 0.00 | 0.00 | 0.39 | 68 | 1014.3 |
| 20260507011851 | 54 | 8 | 1.0 | 2.0 | 0.00 | 0.00 | 0.39 | 67 | 1014.0 |
| 20260507011351 | 54 | 351 | 1.0 | 2.0 | 0.00 | 0.00 | 0.39 | 67 | 1014.0 |
| 20260507010851 | 54 | 330 | 0.0 | 2.0 | 0.00 | 0.00 | 0.39 | 68 | 1014.2 |
| 20260507010352 | 55 | 350 | 0.0 | 3.0 | 0.00 | 0.00 | 0.39 | 67 | 1014.2 |
| 20260507005851 | 55 | 335 | 1.0 | 2.0 | 0.00 | 0.00 | 0.39 | 67 | 1014.0 |
| 20260507005351 | 55 | 328 | 0.0 | 2.0 | 0.00 | 0.00 | 0.39 | 67 | 1014.1 |
| 20260507004853 | 55 | 0 | 0.0 | 0.0 | 0.00 | 0.00 | 0.39 | 65 | 1013.9 |
| 20260507004351 | 55 | 23 | 0.0 | 1.0 | 0.00 | 0.00 | 0.39 | 65 | 1014.1 |
| 20260507003850 | 55 | 14 | 2.0 | 4.0 | 0.00 | 0.00 | 0.39 | 64 | 1013.8 |
| 20260507003351 | 55 | 2 | 3.0 | 4.0 | 0.00 | 0.00 | 0.39 | 64 | 1013.8 |
| 20260507002851 | 56 | 8 | 1.0 | 2.0 | 0.00 | 0.00 | 0.39 | 64 | 1013.8 |
| 20260507002350 | 56 | 5 | 1.0 | 2.0 | 0.00 | 0.00 | 0.39 | 64 | 1013.9 |
| 20260507001851 | 56 | 11 | 4.0 | 5.0 | 0.00 | 0.00 | 0.39 | 63 | 1013.8 |
| 20260507001352 | 56 | 8 | 3.0 | 4.0 | 0.00 | 0.00 | 0.39 | 64 | 1013.7 |
| 20260507000849 | 56 | 14 | 4.0 | 6.0 | 0.00 | 0.00 | 0.39 | 63 | 1013.6 |
| 20260507000357 | 56 | 21 | 4.0 | 6.0 | 0.00 | 0.00 | 0.39 | 62 | 1013.5 |
| 20260506235853 | 56 | 5 | 3.0 | 6.0 | 0.00 | 0.00 | 0.39 | 62 | 1013.4 |
| 20260506235350 | 56 | 16 | 3.0 | 4.0 | 0.00 | 0.00 | 0.39 | 63 | 1013.3 |
| 20260506234853 | 56 | 26 | 5.0 | 8.0 | 0.00 | 0.00 | 0.39 | 62 | 1013.1 |
| 20260506234352 | 56 | 18 | 2.0 | 4.0 | 0.00 | 0.00 | 0.39 | 62 | 1013.1 |
| 20260506233853 | 56 | 349 | 3.0 | 5.0 | 0.00 | 0.00 | 0.39 | 62 | 1012.9 |
| 20260506233350 | 56 | 10 | 3.0 | 4.0 | 0.00 | 0.00 | 0.39 | 62 | 1012.9 |
| 20260506232853 | 56 | 12 | 3.0 | 5.0 | 0.00 | 0.00 | 0.39 | 62 | 1012.9 |
| 20260506232352 | 56 | 15 | 2.0 | 4.0 | 0.00 | 0.00 | 0.39 | 63 | 1012.9 |
| 20260506231850 | 57 | 27 | 5.0 | 8.0 | 0.00 | 0.00 | 0.39 | 62 | 1012.6 |
| 20260506231351 | 57 | 14 | 4.0 | 8.0 | 0.00 | 0.00 | 0.39 | 62 | 1012.5 |
| 20260506230850 | 57 | 17 | 5.0 | 7.0 | 0.00 | 0.00 | 0.39 | 60 | 1012.5 |
| 20260506230354 | 57 | 10 | 4.0 | 6.0 | 0.00 | 0.00 | 0.39 | 61 | 1012.7 |
| 20260506225850 | 57 | 13 | 3.0 | 6.0 | 0.00 | 0.00 | 0.39 | 61 | 1012.9 |
| 20260506225353 | 57 | 41 | 4.0 | 7.0 | 0.00 | 0.00 | 0.39 | 61 | 1012.7 |
| 20260506224852 | 57 | 33 | 4.0 | 9.0 | 0.00 | 0.00 | 0.39 | 59 | 1012.7 |
| 20260506224351 | 57 | 16 | 3.0 | 5.0 | 0.00 | 0.00 | 0.39 | 60 | 1012.7 |
| 20260506223853 | 57 | 22 | 5.0 | 7.0 | 0.00 | 0.00 | 0.39 | 61 | 1012.9 |
| 20260506223353 | 57 | 18 | 5.0 | 7.0 | 0.00 | 0.00 | 0.39 | 60 | 1013.0 |
| 20260506222853 | 58 | 2 | 4.0 | 8.0 | 0.00 | 0.00 | 0.39 | 59 | 1013.0 |
| 20260506222351 | 58 | 16 | 3.0 | 4.0 | 0.00 | 0.00 | 0.39 | 60 | 1012.9 |
| 20260506221851 | 58 | 358 | 3.0 | 4.0 | 0.00 | 0.00 | 0.39 | 59 | 1012.9 |
| 20260506221350 | 58 | 12 | 4.0 | 7.0 | 0.00 | 0.00 | 0.39 | 62 | 1013.0 |
| 20260506220851 | 58 | 6 | 3.0 | 6.0 | 0.00 | 0.00 | 0.39 | 61 | 1013.0 |
| 20260506220351 | 58 | 6 | 3.0 | 5.0 | 0.00 | 0.00 | 0.39 | 61 | 1013.2 |
| 20260506215851 | 58 | 16 | 3.0 | 6.0 | 0.00 | 0.00 | 0.39 | 61 | 1013.3 |
| 20260506215349 | 58 | 2 | 3.0 | 4.0 | 0.00 | 0.00 | 0.39 | 62 | 1013.1 |
| 20260506214852 | 58 | 345 | 4.0 | 7.0 | 0.00 | 0.00 | 0.39 | 62 | 1013.0 |
| 20260506214351 | 58 | 30 | 4.0 | 6.0 | 0.00 | 0.00 | 0.39 | 62 | 1013.0 |
| 20260506213855 | 58 | 3 | 3.0 | 5.0 | 0.00 | 0.00 | 0.39 | 61 | 1013.0 |
| 20260506213352 | 58 | 348 | 2.0 | 4.0 | 0.00 | 0.00 | 0.39 | 62 | 1012.9 |
| 20260506212849 | 59 | 25 | 4.0 | 7.0 | 0.00 | 0.00 | 0.39 | 61 | 1012.7 |
| 20260506212352 | 59 | 345 | 3.0 | 4.0 | 0.00 | 0.00 | 0.39 | 61 | 1012.7 |
| 20260506211851 | 59 | 317 | 4.0 | 6.0 | 0.00 | 0.00 | 0.39 | 57 | 1012.3 |
| 20260506211350 | 60 | 325 | 3.0 | 5.0 | 0.00 | 0.00 | 0.39 | 57 | 1012.3 |
| 20260506210852 | 60 | 335 | 2.0 | 3.0 | 0.00 | 0.00 | 0.39 | 58 | 1012.4 |
| 20260506210352 | 60 | 338 | 2.0 | 4.0 | 0.00 | 0.00 | 0.39 | 57 | 1012.4 |
| 20260506205850 | 60 | 260 | 1.0 | 3.0 | 0.00 | 0.00 | 0.39 | 60 | 1012.4 |
| 20260506205351 | 60 | 330 | 3.0 | 4.0 | 0.00 | 0.00 | 0.39 | 58 | 1012.4 |
| 20260506204851 | 60 | 336 | 2.0 | 4.0 | 0.00 | 0.00 | 0.39 | 57 | 1012.4 |
| 20260506204352 | 60 | 320 | 2.0 | 4.0 | 0.00 | 0.00 | 0.39 | 58 | 1012.3 |
| 20260506203851 | 60 | 313 | 2.0 | 2.0 | 0.00 | 0.00 | 0.39 | 58 | 1012.4 |
| 20260506203353 | 60 | 49 | 2.0 | 3.0 | 0.00 | 0.00 | 0.39 | 58 | 1012.5 |
| 20260506202851 | 60 | 324 | 3.0 | 6.0 | 0.00 | 0.00 | 0.39 | 56 | 1012.3 |
| 20260506202351 | 60 | 314 | 3.0 | 4.0 | 0.00 | 0.00 | 0.39 | 57 | 1012.2 |
| 20260506201852 | 60 | 346 | 2.0 | 3.0 | 0.00 | 0.00 | 0.39 | 59 | 1012.3 |
| 20260506201352 | 60 | 28 | 4.0 | 6.0 | 0.00 | 0.00 | 0.39 | 58 | 1012.3 |
| 20260506200856 | 60 | 79 | 1.0 | 3.0 | 0.00 | 0.00 | 0.39 | 57 | 1012.4 |
| 20260506200351 | 60 | 35 | 3.0 | 4.0 | 0.00 | 0.00 | 0.39 | 56 | 1012.3 |
| 20260506195853 | 60 | 31 | 2.0 | 3.0 | 0.00 | 0.00 | 0.39 | 58 | 1012.5 |
| 20260506195353 | 61 | 22 | 2.0 | 4.0 | 0.00 | 0.00 | 0.39 | 56 | 1012.3 |
| 20260506194852 | 62 | 19 | 4.0 | 6.0 | 0.00 | 0.00 | 0.39 | 54 | 1012.6 |
| 20260506194352 | 61 | 226 | 1.0 | 2.0 | 0.00 | 0.00 | 0.39 | 53 | 1012.4 |
| 20260506193852 | 61 | 30 | 2.0 | 5.0 | 0.00 | 0.00 | 0.39 | 59 | 1012.2 |
| 20260506193351 | 60 | 16 | 3.0 | 6.0 | 0.00 | 0.00 | 0.39 | 55 | 1012.0 |
| 20260506192850 | 60 | 50 | 4.0 | 7.0 | 0.00 | 0.00 | 0.39 | 57 | 1012.0 |
| 20260506192351 | 60 | 355 | 4.0 | 9.0 | 0.00 | 0.00 | 0.39 | 55 | 1012.1 |
| 20260506191851 | 59 | 331 | 3.0 | 6.0 | 0.00 | 0.00 | 0.39 | 57 | 1012.0 |
| 20260506191351 | 59 | 65 | 3.0 | 4.0 | 0.00 | 0.00 | 0.39 | 60 | 1012.2 |
| 20260506190851 | 59 | 31 | 3.0 | 5.0 | 0.00 | 0.00 | 0.39 | 59 | 1012.3 |
| 20260506190356 | 59 | 27 | 4.0 | 7.0 | 0.00 | 0.00 | 0.39 | 57 | 1012.2 |
| 20260506185852 | 59 | 13 | 4.0 | 7.0 | 0.00 | 0.00 | 0.39 | 62 | 1012.2 |
| 20260506185353 | 59 | 9 | 3.0 | 5.0 | 0.00 | 0.00 | 0.39 | 59 | 1012.1 |
| 20260506184851 | 58 | 325 | 2.0 | 4.0 | 0.00 | 0.00 | 0.39 | 63 | 1012.0 |
| 20260506184353 | 58 | 29 | 5.0 | 6.0 | 0.00 | 0.00 | 0.39 | 64 | 1012.2 |
| 20260506183851 | 58 | 6 | 4.0 | 6.0 | 0.00 | 0.00 | 0.39 | 61 | 1012.2 |
| 20260506183353 | 58 | 35 | 2.0 | 4.0 | 0.00 | 0.00 | 0.39 | 65 | 1012.4 |
| 20260506182849 | 58 | 7 | 6.0 | 8.0 | 0.00 | 0.00 | 0.39 | 62 | 1012.2 |
| 20260506182351 | 58 | 86 | 2.0 | 4.0 | 0.00 | 0.00 | 0.39 | 63 | 1012.2 |
| 20260506181852 | 58 | 18 | 4.0 | 7.0 | 0.00 | 0.00 | 0.39 | 63 | 1012.3 |
| 20260506181354 | 58 | 5 | 4.0 | 5.0 | 0.00 | 0.00 | 0.39 | 61 | 1012.1 |
| 20260506180852 | 58 | 0 | 5.0 | 8.0 | 0.00 | 0.00 | 0.39 | 62 | 1012.4 |
| 20260506180354 | 58 | 34 | 4.0 | 6.0 | 0.00 | 0.00 | 0.39 | 64 | 1012.4 |
| 20260506175852 | 58 | 44 | 7.0 | 9.0 | 0.00 | 0.00 | 0.39 | 63 | 1012.4 |
| 20260506175351 | 57 | 300 | 2.0 | 4.0 | 0.00 | 0.00 | 0.39 | 64 | 1012.5 |
| 20260506174853 | 57 | 7 | 6.0 | 8.0 | 0.00 | 0.00 | 0.39 | 64 | 1012.6 |
| 20260506174354 | 57 | 339 | 5.0 | 8.0 | 0.00 | 0.00 | 0.39 | 63 | 1012.5 |
| 20260506173853 | 57 | 32 | 6.0 | 7.0 | 0.00 | 0.00 | 0.39 | 65 | 1012.8 |
| 20260506173353 | 56 | 13 | 5.0 | 8.0 | 0.00 | 0.00 | 0.39 | 65 | 1012.7 |
| 20260506172852 | 56 | 48 | 4.0 | 5.0 | 0.00 | 0.00 | 0.39 | 67 | 1012.9 |
| 20260506172354 | 56 | 12 | 2.0 | 4.0 | 0.00 | 0.00 | 0.39 | 67 | 1013.0 |
| 20260506171900 | 56 | 358 | 5.0 | 8.0 | 0.00 | 0.00 | 0.39 | 67 | 1012.9 |
| 20260506171352 | 56 | 7 | 4.0 | 6.0 | 0.00 | 0.00 | 0.39 | 67 | 1012.8 |
| 20260506170853 | 56 | 2 | 2.0 | 4.0 | 0.00 | 0.00 | 0.39 | 69 | 1012.9 |
| 20260506170354 | 55 | 352 | 4.0 | 6.0 | 0.00 | 0.00 | 0.39 | 66 | 1012.9 |
| 20260506165850 | 55 | 29 | 5.0 | 8.0 | 0.00 | 0.00 | 0.39 | 69 | 1013.1 |
| 20260506165353 | 55 | 9 | 4.0 | 6.0 | 0.00 | 0.00 | 0.39 | 72 | 1013.1 |
| 20260506164853 | 55 | 353 | 6.0 | 9.0 | 0.00 | 0.00 | 0.39 | 68 | 1013.0 |
| 20260506164351 | 55 | 352 | 4.0 | 9.0 | 0.00 | 0.00 | 0.39 | 70 | 1013.2 |
| 20260506163851 | 54 | 39 | 4.0 | 6.0 | 0.00 | 0.00 | 0.39 | 73 | 1013.2 |
| 20260506163352 | 54 | 48 | 7.0 | 9.0 | 0.00 | 0.00 | 0.39 | 72 | 1013.2 |
| 20260506162854 | 54 | 49 | 4.0 | 7.0 | 0.00 | 0.00 | 0.39 | 71 | 1012.9 |
| 20260506162352 | 54 | 16 | 5.0 | 9.0 | 0.00 | 0.00 | 0.39 | 74 | 1013.0 |
| 20260506161850 | 54 | 5 | 5.0 | 8.0 | 0.00 | 0.00 | 0.39 | 74 | 1012.9 |
| 20260506161352 | 54 | 30 | 6.0 | 9.0 | 0.00 | 0.00 | 0.39 | 73 | 1012.9 |
| 20260506160853 | 54 | 38 | 4.0 | 6.0 | 0.00 | 0.00 | 0.39 | 73 | 1012.9 |
| 20260506160354 | 54 | 5 | 5.0 | 8.0 | 0.00 | 0.00 | 0.39 | 73 | 1013.0 |
| 20260506155853 | 54 | 70 | 4.0 | 7.0 | 0.00 | 0.00 | 0.39 | 76 | 1013.2 |
| 20260506154907 | 53 | 31 | 5.0 | 7.0 | 0.00 | 0.00 | 0.39 | 76 | 1013.0 |
| 20260506154352 | 53 | 6 | 4.0 | 7.0 | 0.00 | 0.00 | 0.39 | 73 | 1012.9 |
| 20260506153851 | 53 | 20 | 6.0 | 10.0 | 0.00 | 0.00 | 0.39 | 76 | 1013.0 |
| 20260506153353 | 53 | 34 | 4.0 | 6.0 | 0.00 | 0.00 | 0.39 | 77 | 1012.9 |
| 20260506152852 | 53 | 46 | 5.0 | 6.0 | 0.00 | 0.00 | 0.39 | 76 | 1012.6 |
| 20260506152354 | 53 | 353 | 6.0 | 9.0 | 0.00 | 0.00 | 0.39 | 75 | 1012.6 |
| 20260506151852 | 53 | 43 | 5.0 | 8.0 | 0.00 | 0.00 | 0.39 | 79 | 1012.7 |
| 20260506151353 | 52 | 8 | 3.0 | 5.0 | 0.00 | 0.00 | 0.39 | 80 | 1012.9 |
| 20260506150852 | 52 | 347 | 4.0 | 8.0 | 0.00 | 0.00 | 0.39 | 79 | 1012.5 |
| 20260506150350 | 52 | 35 | 3.0 | 6.0 | 0.00 | 0.00 | 0.39 | 80 | 1012.5 |
| 20260506145852 | 52 | 12 | 4.0 | 6.0 | 0.00 | 0.00 | 0.39 | 82 | 1012.5 |
| 20260506145354 | 51 | 23 | 2.0 | 4.0 | 0.00 | 0.00 | 0.39 | 83 | 1012.6 |
| 20260506144849 | 51 | 63 | 4.0 | 9.0 | 0.00 | 0.00 | 0.39 | 80 | 1012.4 |
| 20260506144352 | 51 | 13 | 3.0 | 4.0 | 0.00 | 0.00 | 0.39 | 81 | 1012.4 |
| 20260506143854 | 51 | 12 | 4.0 | 7.0 | 0.00 | 0.00 | 0.39 | 85 | 1012.3 |
| 20260506143352 | 51 | 1 | 6.0 | 9.0 | 0.00 | 0.00 | 0.39 | 83 | 1012.2 |
| 20260506142854 | 51 | 345 | 4.0 | 6.0 | 0.00 | 0.00 | 0.39 | 84 | 1012.2 |
| 20260506142352 | 51 | 39 | 2.0 | 4.0 | 0.00 | 0.00 | 0.39 | 84 | 1012.2 |
| 20260506141853 | 50 | 11 | 2.0 | 4.0 | 0.00 | 0.00 | 0.39 | 86 | 1012.2 |
| 20260506141349 | 50 | 10 | 4.0 | 8.0 | 0.00 | 0.00 | 0.39 | 86 | 1012.0 |
| 20260506140852 | 50 | 26 | 4.0 | 7.0 | 0.00 | 0.00 | 0.39 | 88 | 1012.0 |
| 20260506140352 | 50 | 23 | 4.0 | 7.0 | 0.00 | 0.00 | 0.39 | 87 | 1011.9 |
| 20260506135855 | 50 | 30 | 5.0 | 7.0 | 0.00 | 0.00 | 0.39 | 88 | 1011.9 |
| 20260506135351 | 49 | 31 | 3.0 | 5.0 | 0.00 | 0.00 | 0.39 | 88 | 1012.2 |
| 20260506134853 | 49 | 358 | 4.0 | 5.0 | 0.00 | 0.00 | 0.39 | 88 | 1012.2 |
| 20260506134351 | 49 | 21 | 3.0 | 5.0 | 0.00 | 0.00 | 0.39 | 89 | 1012.2 |
| 20260506133852 | 49 | 349 | 3.0 | 6.0 | 0.00 | 0.00 | 0.39 | 88 | 1012.2 |
| 20260506133351 | 49 | 7 | 4.0 | 5.0 | 0.00 | 0.00 | 0.39 | 88 | 1012.1 |
| 20260506132853 | 49 | 344 | 4.0 | 4.0 | 0.00 | 0.00 | 0.39 | 89 | 1011.8 |
| 20260506132354 | 49 | 7 | 4.0 | 6.0 | 0.00 | 0.00 | 0.39 | 90 | 1011.9 |
| 20260506131851 | 48 | 27 | 3.0 | 5.0 | 0.00 | 0.00 | 0.39 | 92 | 1011.8 |
| 20260506131351 | 48 | 335 | 3.0 | 6.0 | 0.00 | 0.00 | 0.39 | 91 | 1011.8 |
| 20260506130851 | 47 | 9 | 4.0 | 5.0 | 0.00 | 0.00 | 0.39 | 92 | 1011.7 |
| 20260506130351 | 47 | 4 | 4.0 | 5.0 | 0.00 | 0.00 | 0.39 | 92 | 1011.7 |
| 20260506125851 | 47 | 340 | 3.0 | 4.0 | 0.00 | 0.00 | 0.39 | 93 | 1011.6 |
| 20260506125351 | 47 | 29 | 3.0 | 4.0 | 0.00 | 0.00 | 0.39 | 92 | 1011.5 |
| 20260506124853 | 47 | 3 | 3.0 | 4.0 | 0.00 | 0.00 | 0.39 | 93 | 1011.5 |
| 20260506123952 | 47 | 22 | 3.0 | 5.0 | 0.00 | 0.00 | 0.39 | 93 | 1011.5 |
| 20260506123351 | 47 | 0 | 2.0 | 4.0 | 0.00 | 0.00 | 0.39 | 94 | 1011.6 |
| 20260506122851 | 47 | 356 | 3.0 | 4.0 | 0.00 | 0.00 | 0.39 | 94 | 1011.5 |
| 20260506122352 | 47 | 334 | 2.0 | 3.0 | 0.00 | 0.00 | 0.39 | 94 | 1011.3 |
| 20260506121852 | 47 | 343 | 2.0 | 4.0 | 0.00 | 0.00 | 0.39 | 94 | 1011.3 |
| 20260506121354 | 47 | 358 | 3.0 | 3.0 | 0.00 | 0.00 | 0.39 | 95 | 1011.1 |
| 20260506120851 | 47 | 17 | 4.0 | 5.0 | 0.00 | 0.00 | 0.39 | 94 | 1010.9 |
| 20260506120351 | 47 | 349 | 3.0 | 5.0 | 0.00 | 0.00 | 0.39 | 95 | 1011.1 |
| 20260506115852 | 46 | 9 | 5.0 | 6.0 | 0.00 | 0.00 | 0.39 | 94 | 1010.8 |
| 20260506115351 | 46 | 11 | 4.0 | 6.0 | 0.00 | 0.00 | 0.39 | 94 | 1010.5 |
| 20260506114851 | 47 | 18 | 4.0 | 5.0 | 0.00 | 0.00 | 0.39 | 94 | 1010.6 |
| 20260506114354 | 47 | 338 | 3.0 | 4.0 | 0.00 | 0.00 | 0.39 | 95 | 1010.5 |
| 20260506113851 | 47 | 349 | 4.0 | 6.0 | 0.00 | 0.00 | 0.39 | 95 | 1010.3 |
| 20260506113352 | 47 | 1 | 4.0 | 6.0 | 0.00 | 0.00 | 0.39 | 95 | 1010.1 |
| 20260506112851 | 47 | 17 | 3.0 | 4.0 | 0.00 | 0.00 | 0.39 | 95 | 1009.9 |
| 20260506112351 | 47 | 359 | 5.0 | 7.0 | 0.00 | 0.00 | 0.39 | 95 | 1009.9 |
| 20260506111853 | 47 | 2 | 2.0 | 3.0 | 0.00 | 0.00 | 0.39 | 95 | 1010.1 |
| 20260506111352 | 47 | 4 | 2.0 | 2.0 | 0.00 | 0.00 | 0.39 | 95 | 1010.0 |
| 20260506110851 | 47 | 13 | 4.0 | 5.0 | 0.00 | 0.00 | 0.39 | 95 | 1009.8 |
| 20260506110355 | 47 | 14 | 5.0 | 7.0 | 0.00 | 0.00 | 0.39 | 95 | 1009.4 |
| 20260506105853 | 47 | 1 | 3.0 | 5.0 | 0.00 | 0.00 | 0.39 | 95 | 1009.3 |
| 20260506105353 | 47 | 21 | 4.0 | 5.0 | 0.00 | 0.00 | 0.39 | 95 | 1009.4 |
| 20260506104851 | 47 | 348 | 4.0 | 5.0 | 0.00 | 0.00 | 0.39 | 95 | 1009.3 |
| 20260506104353 | 46 | 15 | 3.0 | 4.0 | 0.00 | 0.00 | 0.39 | 95 | 1009.2 |
| 20260506103851 | 46 | 12 | 2.0 | 4.0 | 0.00 | 0.00 | 0.39 | 95 | 1009.2 |
| 20260506103352 | 46 | 32 | 4.0 | 5.0 | 0.00 | 0.00 | 0.39 | 96 | 1009.0 |
| 20260506102854 | 46 | 10 | 3.0 | 4.0 | 0.00 | 0.00 | 0.39 | 96 | 1008.8 |
| 20260506102351 | 46 | 50 | 3.0 | 4.0 | 0.00 | 0.00 | 0.39 | 95 | 1008.7 |
| 20260506101851 | 46 | 36 | 4.0 | 6.0 | 0.00 | 0.00 | 0.39 | 95 | 1008.5 |
| 20260506101353 | 46 | 17 | 2.0 | 3.0 | 0.00 | 0.00 | 0.39 | 96 | 1008.7 |
| 20260506100851 | 46 | 11 | 3.0 | 4.0 | 0.00 | 0.00 | 0.39 | 96 | 1008.9 |
| 20260506100352 | 46 | 21 | 4.0 | 5.0 | 0.00 | 0.00 | 0.39 | 96 | 1008.8 |
| 20260506095852 | 46 | 4 | 4.0 | 7.0 | 0.00 | 0.00 | 0.39 | 95 | 1008.8 |
| 20260506095353 | 46 | 358 | 5.0 | 7.0 | 0.00 | 0.00 | 0.39 | 95 | 1008.9 |
| 20260506094850 | 46 | 8 | 4.0 | 5.0 | 0.00 | 0.00 | 0.39 | 95 | 1009.0 |
| 20260506094352 | 46 | 9 | 6.0 | 9.0 | 0.00 | 0.00 | 0.39 | 95 | 1008.9 |
| 20260506093855 | 46 | 5 | 5.0 | 8.0 | 0.00 | 0.00 | 0.39 | 95 | 1008.7 |
| 20260506093351 | 47 | 9 | 5.0 | 6.0 | 0.00 | 0.00 | 0.39 | 95 | 1008.6 |
| 20260506092852 | 47 | 356 | 6.0 | 8.0 | 0.00 | 0.00 | 0.39 | 95 | 1008.7 |
| 20260506092350 | 47 | 11 | 4.0 | 7.0 | 0.00 | 0.00 | 0.39 | 95 | 1008.5 |
| 20260506091853 | 47 | 18 | 6.0 | 9.0 | 0.00 | 0.00 | 0.39 | 95 | 1008.6 |
| 20260506091352 | 47 | 17 | 4.0 | 4.0 | 0.00 | 0.00 | 0.39 | 95 | 1008.3 |
| 20260506090852 | 47 | 4 | 5.0 | 7.0 | 0.00 | 0.00 | 0.39 | 95 | 1008.3 |
| 20260506090354 | 47 | 356 | 5.0 | 8.0 | 0.00 | 0.00 | 0.39 | 95 | 1008.5 |
| 20260506085854 | 47 | 1 | 5.0 | 7.0 | 0.00 | 0.00 | 0.39 | 95 | 1008.3 |
| 20260506085351 | 47 | 355 | 4.0 | 5.0 | 0.04 | 0.00 | 0.39 | 96 | 1008.2 |
| 20260506084853 | 47 | 14 | 6.0 | 9.0 | 0.09 | 0.00 | 0.39 | 96 | 1008.1 |
| 20260506084351 | 48 | 7 | 5.0 | 6.0 | 0.09 | 0.00 | 0.39 | 96 | 1008.0 |
| 20260506083853 | 48 | 4 | 6.0 | 10.0 | 0.10 | 0.00 | 0.39 | 96 | 1007.9 |
| 20260506083350 | 48 | 2 | 6.0 | 8.0 | 0.10 | 0.00 | 0.39 | 96 | 1007.9 |
| 20260506082851 | 48 | 2 | 5.0 | 7.0 | 0.07 | 0.00 | 0.39 | 96 | 1007.8 |
| 20260506082350 | 48 | 8 | 7.0 | 11.0 | 0.07 | 0.00 | 0.39 | 96 | 1007.9 |
| 20260506081852 | 49 | 23 | 8.0 | 12.0 | 0.07 | 0.00 | 0.35 | 96 | 1008.0 |
| 20260506081353 | 49 | 6 | 6.0 | 9.0 | 0.07 | 0.00 | 0.35 | 96 | 1007.9 |
| 20260506080852 | 50 | 354 | 4.0 | 7.0 | 0.07 | 0.00 | 0.35 | 97 | 1007.8 |
| 20260506080353 | 50 | 7 | 6.0 | 8.0 | 0.08 | 0.00 | 0.35 | 97 | 1007.6 |
| 20260506073351 | 54 | 2 | 4.0 | 7.0 | 0.08 | 0.00 | 0.29 | 96 | 1007.6 |
| 20260506072854 | 55 | 15 | 4.0 | 6.0 | 0.07 | 0.00 | 0.29 | 95 | 1007.0 |
| 20260506072351 | 57 | 352 | 4.0 | 6.0 | 0.09 | 0.00 | 0.29 | 97 | 1006.7 |
| 20260506071851 | 57 | 286 | 1.0 | 2.0 | 0.11 | 0.00 | 0.26 | 98 | 1006.6 |
| 20260506071351 | 57 | 251 | 3.0 | 5.0 | 0.11 | 0.00 | 0.26 | 98 | 1006.5 |
| 20260506070851 | 57 | 268 | 4.0 | 6.0 | 0.13 | 0.00 | 0.26 | 98 | 1006.5 |